Location: Auttagershofen
(48.1940°N, 10.0237°E)
Time: 22:12:06
(UTC+00:00)

Lacrosse 5 rocket - Pass Details

Date: 16 April 2026
Orbit: 390 x 471 km, 57.0° (Epoch: 19 May)

Event Time Altitude Azimuth Distance (km) Brightness Sun altitude
Rises 19:39:25 0° 269° (W) 2,296 5.5 -14.0°
Maximum altitude 19:44:24 24° 341° (NNW) 867 3.0 -14.7°
Drops below altitude 10° 19:47:04 10° 38° (NE) 1,431 3.4 -15.0°
Enters shadow 19:48:54 - 51° (NE) 2,108 4.1 -15.3°
